Terminal Aerodrome Forecast
Issued by NWS Greer, SC

Home | Current Version | Previous Version | Text Only | Print | Product List | Glossary On
Versions: 1 2 3 4 5 6 7 8 9 10 11 12 13 14 15 16 17 18
000
FTUS42 KGSP 302337
TAFGSP
TAF
KGSP 302337Z 3100/3124 10007KT P6SM -SHRA SCT040 OVC100
      TEMPO 3100/3102 5SM SHRA BR BKN040
     FM310400 00000KT P6SM OVC020
     FM310600 00000KT P6SM OVC010
     FM310800 00000KT 5SM BR OVC008
     FM311300 04003KT P6SM BKN015
     FM311600 04005KT P6SM BKN025
     FM311800 05005KT P6SM SCT045 BKN120=

USA.gov is the U.S. government's official web portal to all federal, state and local government web resources and services.